Hat Yai, Thailand

5:12 AM ICT on December 06, 2016 (GMT +0700)
Hat Yai International

Weather History for VTSS - July, 2013

Change the Weather History Date:

Thursday, July 25, 2013

  Actual Average Record
Temperature  
Mean Temperature 82 °F -  
Max Temperature 92 °F 89 °F 95 °F (2014)
Min Temperature 71 °F 74 °F 71 °F (2011)
Cooling Degree Days 16    
Growing Degree Days 32 (Base 50)    
Moisture  
Dew Point 71 °F    
Average Humidity 74    
Maximum Humidity 94    
Minimum Humidity 45    
Precipitation  
Precipitation 0.00 in - - ()
Sea Level Pressure  
Sea Level Pressure 29.81 in    
Wind  
Wind Speed 2 mph ()    
Max Wind Speed 10 mph    
Max Gust Speed -    
Visibility 6.2 miles    
Events      
Averages and records for this station are not official NWS values.
T = Trace of Precipitation, MM = Missing Value Source: Averaged Metar Reports

Daily Weather History Graph

Daily Weather History Graph

Search for Another Location

Airport or City:

Trip Planner

Search our weather history database for the weather conditions in past years. The results will help you decide how hot, cold, wet, or windy it might be!

Date:

Astronomy

Jul. 25, 2013 Rise Set
Actual Time 6:11 AM ICT 6:38 PM ICT
Civil Twilight 5:49 AM ICT 7:00 PM ICT
Nautical Twilight 5:23 AM ICT 7:26 PM ICT
Astronomical Twilight 4:57 AM ICT 7:52 PM ICT
Moon 8:52 PM ICT (7/25) 8:20 AM ICT (7/25)
Length of Visible Light 13h 11m
Length of Day
12h 26m
Waning Gibbous, 91% of the Moon is Illuminated
Jul 25
Waning Gibbous
Jul 30
Last Quarter
Aug 7
New
Aug 14
First Quarter
Aug 21
Full

Hourly Weather History & Observations

Time (ICT) Temp. Heat Index Dew Point Humidity Pressure Visibility Wind Dir Wind Speed Gust Speed Precip Events Conditions
12:00 AM 73.4 °F - 71.6 °F 94% 29.83 in 6.2 mi Calm Calm - N/A   Mostly Cloudy
12:30 AM 73.4 °F - 71.6 °F 94% 29.83 in 6.2 mi Calm Calm - N/A   Mostly Cloudy
1:00 AM 73 °F - 71 °F 91% 29.84 in 6 mi Calm Calm - -   Scattered Clouds
1:00 AM 73.4 °F - 71.6 °F 94% 29.83 in 6.2 mi Calm Calm - N/A   Mostly Cloudy
1:30 AM 73.4 °F - 71.6 °F 94% 29.83 in 6.2 mi WSW 3.5 mph - N/A   Mostly Cloudy
2:00 AM 73.4 °F - 71.6 °F 94% 29.83 in 6.2 mi Calm Calm - N/A   Mostly Cloudy
2:30 AM 73.4 °F - 69.8 °F 88% 29.83 in 6.2 mi Calm Calm - N/A   Mostly Cloudy
3:00 AM 73.4 °F - 71.6 °F 94% 29.80 in 6.2 mi Calm Calm - N/A   Mostly Cloudy
3:30 AM 71.6 °F - 69.8 °F 94% 29.80 in 6.2 mi Calm Calm - N/A   Mostly Cloudy
4:00 AM 71.6 °F - 69.8 °F 94% 29.80 in 6.2 mi Calm Calm - N/A   Mostly Cloudy
4:30 AM 71.6 °F - 69.8 °F 94% 29.80 in 6.2 mi Calm Calm - N/A   Mostly Cloudy
5:00 AM 71.6 °F - 69.8 °F 94% 29.80 in 6.2 mi Calm Calm - N/A   Mostly Cloudy
5:30 AM 71.6 °F - 69.8 °F 94% 29.83 in 6.2 mi Calm Calm - N/A   Mostly Cloudy
6:00 AM 71.6 °F - 69.8 °F 94% 29.83 in 6.2 mi Calm Calm - N/A   Mostly Cloudy
6:30 AM 71.6 °F - 69.8 °F 94% 29.83 in 6.2 mi Calm Calm - N/A   Mostly Cloudy
7:00 AM 73 °F - 71 °F 91% 29.85 in 6 mi Calm Calm - -   Scattered Clouds
7:00 AM 73.4 °F - 71.6 °F 94% 29.83 in 6.2 mi Calm Calm - N/A   Mostly Cloudy
7:30 AM 75.2 °F - 73.4 °F 94% 29.86 in 6.2 mi Calm Calm - N/A   Mostly Cloudy
8:00 AM 78.8 °F - 73.4 °F 83% 29.86 in 6.2 mi SSE 3.5 mph - N/A   Mostly Cloudy
8:30 AM 80.6 °F 86.2 °F 75.2 °F 84% 29.86 in 6.2 mi SSE 2.3 mph - N/A   Mostly Cloudy
9:00 AM 84.2 °F 92.3 °F 75.2 °F 74% 29.86 in 6.2 mi South 3.5 mph - N/A   Mostly Cloudy
9:30 AM 84.2 °F 92.3 °F 75.2 °F 74% 29.86 in 6.2 mi South 3.5 mph - N/A   Mostly Cloudy
10:00 AM 86.0 °F 95.1 °F 75.2 °F 70% 29.86 in 6.2 mi South 4.6 mph - N/A   Mostly Cloudy
10:30 AM 86.0 °F 95.1 °F 75.2 °F 70% 29.86 in 6.2 mi SSW 4.6 mph - N/A   Mostly Cloudy
11:00 AM 87.8 °F 97.6 °F 75.2 °F 66% 29.83 in 6.2 mi SSE 10.4 mph - N/A   Mostly Cloudy
11:30 AM 86.0 °F 95.1 °F 75.2 °F 70% 29.83 in 6.2 mi SSE 4.6 mph - N/A   Mostly Cloudy
12:00 PM 87.8 °F 95.6 °F 73.4 °F 62% 29.83 in 6.2 mi SSW 5.8 mph - N/A   Mostly Cloudy
12:30 PM 89.6 °F 98.2 °F 73.4 °F 59% 29.80 in 6.2 mi SSW 5.8 mph - N/A   Mostly Cloudy
1:00 PM 91 °F - 72 °F 45% 29.79 in 6 mi WSW 8.1 mph - -   Scattered Clouds
1:00 PM 89.6 °F 96.2 °F 71.6 °F 55% 29.80 in 6.2 mi WSW 8.1 mph - N/A   Mostly Cloudy
1:30 PM 91.4 °F 100.1 °F 73.4 °F 55% 29.77 in 6.2 mi West 9.2 mph - N/A   Mostly Cloudy
2:00 PM 91.4 °F 98.4 °F 71.6 °F 52% 29.77 in 6.2 mi SW 8.1 mph - N/A   Mostly Cloudy
2:30 PM 93.2 °F 100.5 °F 71.6 °F 49% 29.77 in 6.2 mi West 9.2 mph - N/A   Mostly Cloudy
3:00 PM 91.4 °F 98.4 °F 71.6 °F 52% 29.77 in 6.2 mi West 8.1 mph - N/A   Mostly Cloudy
3:30 PM 91.4 °F 96.8 °F 69.8 °F 49% 29.77 in 6.2 mi SW 9.2 mph - N/A   Mostly Cloudy
4:00 PM 91.4 °F 95.4 °F 68.0 °F 46% 29.74 in 6.2 mi West 8.1 mph - N/A   Mostly Cloudy
4:30 PM 91.4 °F 95.4 °F 68.0 °F 46% 29.74 in 6.2 mi West 8.1 mph - N/A   Mostly Cloudy
5:00 PM 91.4 °F 95.4 °F 68.0 °F 46% 29.74 in 6.2 mi WSW 6.9 mph - N/A   Mostly Cloudy
5:30 PM 91.4 °F 95.4 °F 68.0 °F 46% 29.74 in 6.2 mi West 9.2 mph - N/A   Mostly Cloudy
6:00 PM 89.6 °F 93.4 °F 68.0 °F 49% 29.77 in 6.2 mi West 8.1 mph - N/A   Mostly Cloudy
6:30 PM 87.8 °F 91.4 °F 68.0 °F 52% 29.77 in 6.2 mi WSW 5.8 mph - N/A   Mostly Cloudy
7:00 PM 85 °F - 69 °F 49% 29.78 in 6 mi West 3.5 mph - -   Scattered Clouds
7:00 PM 86.0 °F 90.4 °F 69.8 °F 58% 29.77 in 6.2 mi West 3.5 mph - N/A   Mostly Cloudy
7:30 PM 84.2 °F 89.6 °F 71.6 °F 66% 29.80 in 6.2 mi SW 2.3 mph - N/A   Mostly Cloudy
8:00 PM 82.4 °F 87.2 °F 71.6 °F 70% 29.80 in 6.2 mi SW 3.5 mph - N/A   Mostly Cloudy
8:30 PM 80.6 °F 84.6 °F 71.6 °F 74% 29.80 in 6.2 mi WSW 3.5 mph - N/A   Mostly Cloudy
9:00 PM 80.6 °F 84.6 °F 71.6 °F 74% 29.80 in 6.2 mi WSW 2.3 mph - N/A   Mostly Cloudy
9:30 PM 78.8 °F - 71.6 °F 78% 29.83 in 6.2 mi Calm Calm - N/A   Mostly Cloudy
10:00 PM 78.8 °F - 71.6 °F 78% 29.83 in 6.2 mi Calm Calm - N/A   Mostly Cloudy
10:30 PM 77.0 °F - 73.4 °F 89% 29.83 in 6.2 mi Calm Calm - N/A   Mostly Cloudy
11:00 PM 77.0 °F - 73.4 °F 89% 29.86 in 6.2 mi Calm Calm - N/A   Mostly Cloudy
11:30 PM 77.0 °F - 71.6 °F 83% 29.86 in 6.2 mi SSW 2.3 mph - N/A   Mostly Cloudy